Park Rapids, MN

9:08 AM CST on November 18, 2017 (GMT -0600)
Park Rapids Municipal

Weather History for KPKD - July, 2013

Change the Weather History Date:

Friday, July 5, 2013

  Actual Average Record
Temperature  
Mean Temperature 76 °F -  
Max Temperature 84 °F 81 °F 99 °F (1988)
Min Temperature 68 °F 54 °F 39 °F (2001)
Cooling Degree Days 11    
Growing Degree Days 26 (Base 50)    
Moisture  
Dew Point 61 °F    
Average Humidity 61    
Maximum Humidity 78    
Minimum Humidity 47    
Precipitation  
Precipitation 0.00 in - - ()
Sea Level Pressure  
Sea Level Pressure 29.76 in    
Wind  
Wind Speed 10 mph (South)    
Max Wind Speed 14 mph    
Max Gust Speed 20 mph    
Visibility 10 miles    
Events      
Averages and records for this station are not official NWS values.
T = Trace of Precipitation, MM = Missing Value Source: NWS Daily Summary

Daily Weather History Graph

Daily Weather History Graph

Search for Another Location

Airport or City:

Trip Planner

Search our weather history database for the weather conditions in past years. The results will help you decide how hot, cold, wet, or windy it might be!

Date:

Astronomy

Jul. 05, 2013 Rise Set
Actual Time 5:32 AM CDT 9:17 PM CDT
Civil Twilight 4:53 AM CDT 9:56 PM CDT
Nautical Twilight 4:00 AM CDT 10:48 PM CDT
Astronomical Twilight 2:45 AM CDT 12:02 AM CDT
Moon 3:36 AM CDT (7/5) 7:09 PM CDT (7/5)
Length of Visible Light 17h 02m
Length of Day
15h 44m
Waning Crescent, 6% of the Moon is Illuminated
Jul 5
Waning Crescent
Jul 8
New
Jul 15
First Quarter
Jul 22
Full
Jul 29
Last Quarter

Hourly Weather History & Observations

Time (CDT) Temp. Heat Index Dew Point Humidity Pressure Visibility Wind Dir Wind Speed Gust Speed Precip Events Conditions
12:53 AM 73.0 °F - 57.9 °F 59% 29.76 in 10.0 mi South 11.5 mph - N/A   Clear
1:53 AM 72.0 °F - 57.9 °F 61% 29.76 in 10.0 mi South 10.4 mph - N/A   Clear
2:53 AM 70.0 °F - 57.9 °F 65% 29.77 in 10.0 mi South 9.2 mph - N/A   Clear
3:53 AM 70.0 °F - 57.9 °F 65% 29.77 in 10.0 mi SSE 9.2 mph - N/A   Clear
4:53 AM 68.0 °F - 57.9 °F 70% 29.77 in 10.0 mi SE 8.1 mph - N/A   Clear
5:53 AM 68.0 °F - 57.9 °F 70% 29.76 in 10.0 mi SSE 9.2 mph - N/A   Clear
6:53 AM 69.1 °F - 57.9 °F 68% 29.75 in 10.0 mi SSE 11.5 mph - N/A   Partly Cloudy
7:53 AM 70.0 °F - 57.9 °F 65% 29.77 in 10.0 mi South 10.4 mph - N/A   Clear
8:53 AM 73.0 °F - 59.0 °F 61% 29.77 in 10.0 mi South 11.5 mph - N/A   Clear
9:53 AM 75.9 °F - 60.1 °F 58% 29.77 in 10.0 mi South 11.5 mph - N/A   Mostly Cloudy
10:53 AM 78.1 °F - 60.1 °F 54% 29.77 in 10.0 mi South 12.7 mph - N/A   Clear
11:53 AM 79.0 °F - 61.0 °F 54% 29.77 in 10.0 mi SSE 11.5 mph 18.4 mph N/A   Clear
12:53 PM 82.0 °F 82.7 °F 61.0 °F 49% 29.76 in 10.0 mi South 13.8 mph - N/A   Mostly Cloudy
1:53 PM 82.9 °F 83.3 °F 61.0 °F 47% 29.76 in 10.0 mi South 10.4 mph 19.6 mph N/A   Scattered Clouds
2:53 PM 82.9 °F 83.7 °F 62.1 °F 49% 29.76 in 10.0 mi SSW 9.2 mph - N/A   Scattered Clouds
3:53 PM 84.0 °F 84.9 °F 63.0 °F 49% 29.75 in 10.0 mi South 13.8 mph - N/A   Mostly Cloudy
4:53 PM 84.0 °F 85.4 °F 64.0 °F 51% 29.75 in 10.0 mi SSW 8.1 mph - N/A   Overcast
5:53 PM 82.0 °F 83.4 °F 64.0 °F 54% 29.75 in 10.0 mi SSW 10.4 mph - N/A   Mostly Cloudy
6:53 PM 82.0 °F 83.4 °F 64.0 °F 54% 29.75 in 10.0 mi SW 6.9 mph - N/A   Clear
7:53 PM 80.1 °F 81.9 °F 64.9 °F 60% 29.76 in 10.0 mi SW 3.5 mph - N/A   Clear
8:53 PM 75.9 °F - 64.9 °F 69% 29.75 in 10.0 mi SW 4.6 mph - N/A   Clear
9:53 PM 72.0 °F - 64.9 °F 78% 29.76 in 10.0 mi SW 4.6 mph - N/A   Clear
10:53 PM 72.0 °F - 64.0 °F 76% 29.78 in 10.0 mi Calm Calm - N/A   Clear
11:53 PM 71.1 °F - 64.0 °F 78% 29.79 in 10.0 mi Calm Calm - N/A   Clear